Regional Weather Roundup
Issued by NWS

Home | Current Version | Previous Version | Graphics & Text | Print | Product List | Glossary On
Versions: 1 2 3 4 5 6 7 8 9 10 11 12 13 14 15 16 17 18 19 20 21 22 23 24 25 26 27 28 29 30 31 32 33 34 35 36 37 38 39 40 41 42 43 44 45 46 47 48 49 50
000
ASUS43 KLOT 221604
RWRIL

ILLINOIS REGIONAL WEATHER ROUNDUP
NATIONAL WEATHER SERVICE CHICAGO/ROMEOVILLE IL
1100 AM CDT SAT JUL 22 2017

NOTE: "FAIR" INDICATES FEW OR NO CLOUDS BELOW 12,000 FEET WITH NO
SIGNIFICANT WEATHER AND/OR OBSTRUCTIONS TO VISIBILITY.

* THESE STATIONS ARE NOT UNDER NWS QUALITY CONTROL. THEY ALSO MAY NOT
  REPORT WEATHER SUCH AS PRECIPITATION OR FOG.

ILZ001-002-007-009-015-016-024-221700-
NORTHWEST ILLINOIS

CITY           SKY/WX    TMP DP  RH WIND       PRES   REMARKS
MOLINE         CLOUDY    81  70  69 W5        29.83R HX  84
STERLING*      MOSUNNY   77  70  79 W7        29.85R
SAVANNA*       PTSUNNY   76  70  79 CALM      29.84R
$$

ILZ003-004-008-010-011-017-018-221700-
NORTH CENTRAL ILLINOIS

CITY           SKY/WX    TMP DP  RH WIND       PRES   REMARKS
ROCKFORD       PTSUNNY   82  67  60 W10       29.84F HX  84
FREEPORT*      CLOUDY    76  68  78 CALM      29.86R
ROCHELLE*      PTSUNNY   77  69  78 W6        29.85R
DE KALB*       PTSUNNY   77  70  80 W7        29.86R
PERU*          CLOUDY   N/A N/A N/A W5        29.84R
$$

ILZ005-006-012>014-019>023-221700-
NORTHEAST ILLINOIS

CITY           SKY/WX    TMP DP  RH WIND       PRES   REMARKS
CHICAGO-OHARE  PTSUNNY   77  68  73 N10       29.83F
CHICAGO-MIDWAY CLOUDY    78  68  71 NW8       29.83S HX  80
AURORA         CLOUDY    76  70  82 NW10      29.85R
LANSING*       CLOUDY    78  67  70 NW5       29.84R
JOLIET*        CLOUDY    77  70  78 N7        29.83S
WAUKEGAN       PTSUNNY   78  70  76 VRB5      29.82F HX  80
DUPAGE AIRPORT CLOUDY    76  70  82 NW7       29.84F
WHEELING       CLOUDY    76  70  82 VRB7      29.85S
MORRIS*        CLOUDY    76  69  78 NW3       29.82F
ROMEOVILLE*    CLOUDY    76  67  74 N6        29.84S
NORTHERLY ISL    N/A     75  69  81 N7          N/A
$$

LMZ740>746-221700-
SOUTHERN LAKE MICHIGAN

STATION/POSITION SKY/WX   TEMP    WIND        PRES    VSBY  WAVE
                          AIR SEA DIR/SP/G                  HT/PER
                          (F)     (DEG/KT/KT) (MB)    (MI)  (FT/S)
SOUTHERN BUOY              70 70  330/  6/  8 1009.1          2/ 5
WILMETTE HARBOR            72 72  360/  4/  6   N/A           1
HARRISON CRIB              73     360/  8/  8   N/A
BURNHAM HARBOR             75                   N/A
CALUMET HARBOR             75     350/  5/  8 1009.9R
BURNS HARBOR               74     360/  3/  5 1010.8R
MICHIGAN CITY              75     300/  4/  4   N/A
MICHIGAN CITY 6N           74 74  340/  4/  6   N/A           1
ST. JOSEPH                 74 74  360/  6/  8 1009.6R         2/ 4
$$

ILZ025>027-034>036-040-047-049-050-058-095>099-221700-
WEST-CENTRAL ILLINOIS

CITY           SKY/WX    TMP DP  RH WIND       PRES   REMARKS
QUINCY         SUNNY     84  70  62 S13       29.82F HX  88
MACOMB*        CLOUDY    76  70  83 S12       29.84S
JACKSONVILLE*  MOSUNNY   79  72  77 S12       29.84F HX  82
PITTSFIELD*    SUNNY     83  72  70 S12G18    29.86F HX  88
$$

ILZ028>032-037-038-041>044-048-051>054-059>061-221700-
CENTRAL ILLINOIS

CITY           SKY/WX    TMP DP  RH WIND       PRES   REMARKS
PONTIAC        CLOUDY    77  73  87 S13       29.82S
BLOOMINGTON    CLOUDY    75  69  81 S14       29.85R
DECATUR        CLOUDY    72  69  90 S16       29.81F
PEORIA         CLOUDY    75  70  84 S8        29.83R
LACON*         CLOUDY    75  70  84 SW12      29.83R
LINCOLN*       CLOUDY    73  71  92 S7        29.82R
SPRINGFIELD    CLOUDY    75  72  90 S14       29.82F
TAYLORVILLE    CLOUDY    78  73  85 S8        29.85F HX  81
$$

ILZ033-039-045-046-055>057-062-063-221700-
EAST-CENTRAL ILLINOIS

CITY           SKY/WX    TMP DP  RH WIND       PRES   REMARKS
CHAMPAIGN      CLOUDY    73  70  90 S13       29.78F
RANTOUL*       CLOUDY    74  72  94 S8        29.82F
MATTOON        LGT RAIN  73  72  96 SE14      29.85F
PARIS*         LGT RAIN  74  72  94 S14G20    29.89F
$$

ILZ079-100>102-221700-
SOUTHWEST ILLINOIS

CITY           SKY/WX    TMP DP  RH WIND       PRES   REMARKS
ALTON          SUNNY     84  72  65 E12       29.92F HX  89
BELLEVILLE     SUNNY     86  72  62 E12       29.94F HX  93
CAHOKIA*       SUNNY     89  72  56 E12       29.92F HX  96
SPARTA*        PTSUNNY   90  74  59 N6        29.96S HX  99
$$

ILZ064>066-069>071-074>076-080>082-084>086-088>090-092>094-221700-
SOUTH-CENTRAL ILLINOIS

CITY           SKY/WX    TMP DP  RH WIND       PRES   REMARKS
CARBONDALE     SUNNY     90  78  68 W3        29.95R HX 104
CAIRO*         SUNNY     90  78  68 W7        29.96S HX 103
EFFINGHAM*     MOSUNNY   86  71  59 E7        29.91F HX  91
MARION         SUNNY     91  75  59 W9        29.97R HX 102
MT. VERNON     CLOUDY    90  75  61 NE12      29.96R HX 100
CENTRALIA*     SUNNY     87  73  63 E12G17    29.94F HX  94
SALEM*         MOSUNNY   87  70  57 E8G17     29.94F HX  91
METROPOLIS*    SUNNY     91  78  65 SW10      29.97S HX 104
$$

ILZ067-068-072-073-078-083-087-091-221700-
SOUTHEAST ILLINOIS

CITY           SKY/WX    TMP DP  RH WIND       PRES   REMARKS
LAWRENCEVILLE  MOSUNNY   88  75  65 N16G26    29.96R HX  97
FLORA*         SUNNY     87  69  55 NE12G21   29.95F HX  91
FAIRFIELD*     CLOUDY    85  73  65 N9        29.96R HX  91
HARRISBURG*    SUNNY     92  77  60 W9        29.95S HX 106
ROBINSON*      CLOUDY    83  73  70 CALM      29.96F HX  89
CARMI*         SUNNY     90  79  70 NW12      29.95S HX 106
$$

ABBREVIATIONS USED IN REMARKS
   TC - TEMPERATURE IN CELSIUS
  WCI - WIND CHILL INDEX
   HX - HEAT INDEX
  VSB - VISIBILITY
$$




USA.gov is the U.S. government's official web portal to all federal, state and local government web resources and services.